Regional Weather Roundup
Issued by NWS

Home | Current Version | Previous Version | Graphics & Text | Print | Product List | Glossary On
Versions: 1 2 3 4 5 6 7 8 9 10 11 12 13 14 15 16 17 18 19 20 21 22 23 24 25 26 27 28 29 30 31 32 33 34 35 36 37 38 39 40 41 42 43 44 45 46 47 48 49 50
000
ASUS43 KFSD 220202
RWRSD

WEATHER ROUNDUP FOR SOUTH DAKOTA
NATIONAL WEATHER SERVICE SIOUX FALLS SD
900 PM CDT FRI JUL 21 2017

NOTE: "FAIR" INDICATES FEW OR NO CLOUDS BELOW 12,000 FEET WITH NO
SIGNIFICANT WEATHER AND/OR OBSTRUCTIONS TO VISIBILITY.


SDZ001>005-009-010-012>017-220300-
NORTHWEST AND NORTH CENTRAL SOUTH DAKOTA

CITY           SKY/WX    TMP DP  RH WIND       PRES   REMARKS
BUFFALO          N/A     83  40  21 NW14      29.85R
FAITH            N/A     87  53  31 NW12      29.84
MOBRIDGE       MOCLDY    81  69  67 N18G29    29.73R
$$

SDZ012>016-024>037-041>051-057-063-072>074-220300-
SOUTHWEST AND SOUTH CENTRAL SOUTH DAKOTA

CITY           SKY/WX    TMP DP  RH WIND       PRES   REMARKS
RAPID CTY ARPT PTCLDY    84  43  23 N12       29.91R
PIERRE         CLEAR     92  64  39 NE3       29.70F
CUSTER         CLEAR     78  39  24 VRB6      30.11R
PHILIP         CLEAR     90  56  31 NW12      29.79R
PINE RIDGE     CLEAR     83  54  36 N7        29.92R
SPEARFISH      FAIR      82  37  20 N7        29.99R
WINNER         FAIR      90  71  53 SE12      29.77R HX  96
$$

SDZ004>011-016>023-039-040-220300-
NORTHEAST SOUTH DAKOTA

CITY           SKY/WX    TMP DP  RH WIND       PRES   REMARKS
ABERDEEN       CLOUDY    84  76  76 NE7       29.75R
WATERTOWN      CLEAR     80  72  76 SE5       29.78R
BROOKINGS      CLEAR     79  72  79 SE6       29.80R
SISSETON         N/A     75  68  78 W5        29.73F
$$

SDZ017-020-022-023-036>040-048>070-220300-
SOUTHEAST SOUTH DAKOTA

CITY           SKY/WX    TMP DP  RH WIND       PRES   REMARKS
SIOUX FALLS    CLOUDY    81  75  82 E3        29.76S
HURON          CLEAR     83  73  72 SE8       29.72S
CHAMBERLAIN    PTCLDY    88  75  65 SE14      29.74R HX  97
MITCHELL       CLEAR     83  75  77 SE10      29.75R
YANKTON        CLOUDY    82  77  84 NE5       29.75R
$$

ABBREVIATIONS USED IN REMARKS
   TC - TEMPERATURE IN CELSIUS
  WCI - WIND CHILL INDEX
   HX - HEAT INDEX
  VSB - VISIBILITY





USA.gov is the U.S. government's official web portal to all federal, state and local government web resources and services.